Location: Newark
(49.8969°N, 3.3422°E)
Time: 18:01:15
(UTC+00:00)

Tiros 1 - Pass Details

Date: 17 May 2021
Orbit: 630 x 664 km, 48.4° (Epoch: 11 June)

Event Time Altitude Azimuth Distance (km) Brightness Sun altitude
Exits shadow 22:12:26 12° 97° (E) 1,959 9.3 -17.7°
Drops below altitude 10° 22:12:51 10° 93° (E) 2,078 9.5 -17.7°
Sets 22:15:36 0° 79° (E) 2,989 10.5 -17.9°
